Torna al catalogo

STARLINK-5417

AttivoComunicazioniVLEO
NORAD 54805·PAYLOAD·🇺🇸 United States

Lanciato Dec 17, 2022 da Cape Canaveral Space Force Station

Loading…

Prossimi Passaggi (prossime 24 ore)

TLE

AggiornatoSource: CelesTrak SupGP

Epoca: Sep 15, 2026, 03:01 UTC

1 54805C 22175AZ  26258.12618056 -.00027152  00000+0 -17412-2 0  2584
2 54805  53.1579 258.6910 0001338  68.9543 252.0566 15.08030928    18

Traccia STARLINK-5417 in tempo reale con AllMySat

Download on the App Store